Location: Gleizolles
(44.4833°N, 6.7667°E)
Time: 02:35:40
(UTC+00:00)

CUTE-I - Visible Passes

Search period start: 10 December 2022 00:00
Search period end: 20 December 2022 00:00
Orbit: 810 x 823 km, 98.7° (Epoch: 09 December)

Date Brightness Start Highest point End Pass type
(mag) Time Alt. Az. Time Alt. Az. Time Alt. Az.
10 Dec ? 05:25:05 10° NNE 05:30:12 42° E 05:35:16 10° S visible
10 Dec ? 16:48:14 10° SSE 16:53:34 80° ENE 16:58:56 10° NNW visible
10 Dec ? 18:31:29 10° WSW 18:34:12 14° W 18:36:56 10° WNW visible
11 Dec ? 05:03:43 10° NE 05:08:17 28° E 05:12:50 10° SSE visible
11 Dec ? 16:26:42 10° SE 16:31:52 53° ENE 16:37:03 10° N visible
11 Dec ? 18:08:07 10° SW 18:12:10 22° W 18:16:17 10° NW visible
12 Dec ? 04:42:41 10° NE 04:46:19 18° E 04:49:55 10° SE visible
12 Dec ? 06:21:26 10° N 06:26:46 64° WNW 06:32:04 10° SSW visible
12 Dec ? 17:45:26 10° SSW 17:50:13 34° W 17:55:04 10° NNW visible
13 Dec ? 04:22:39 10° ENE 04:24:15 11° E 04:25:52 10° ESE visible
13 Dec ? 05:59:38 10° NNE 06:05:03 85° ESE 06:10:25 10° SSW visible
13 Dec ? 17:23:10 10° S 17:28:21 52° W 17:33:35 10° NNW visible
14 Dec ? 05:37:57 10° NNE 05:43:15 55° E 05:48:31 10° S visible
14 Dec ? 17:01:12 10° SSE 17:06:32 80° WSW 17:11:56 10° NNW visible
14 Dec ? 18:46:35 10° W 18:47:24 10° W 18:48:12 10° WNW visible
15 Dec ? 05:16:27 10° NNE 05:21:23 36° E 05:26:17 10° SSE visible
15 Dec ? 16:39:31 10° SSE 16:44:48 68° ENE 16:50:09 10° N visible
15 Dec ? 18:21:55 10° SW 18:25:19 17° W 18:28:44 10° NW visible
16 Dec ? 04:55:11 10° NE 04:59:27 23° E 05:03:41 10° SE visible
16 Dec ? 16:18:06 10° SE 16:23:08 44° ENE 16:28:13 10° N visible
16 Dec ? 17:58:54 10° SSW 18:03:19 26° W 18:07:47 10° NW visible
17 Dec ? 04:34:23 10° NE 04:37:26 15° E 04:40:28 10° SE visible
17 Dec ? 06:12:38 10° N 06:18:02 76° WNW 06:23:22 10° SSW visible
17 Dec ? 17:36:25 10° SSW 17:41:23 40° W 17:46:27 10° NNW visible
18 Dec ? 05:50:53 10° NNE 05:56:16 72° ESE 06:01:37 10° S visible
18 Dec ? 17:14:17 10° S 17:19:33 62° WSW 17:24:53 10° NNW visible
19 Dec ? 05:29:16 10° NNE 05:34:26 46° E 05:39:35 10° S visible
19 Dec ? 16:52:25 10° SSE 16:57:46 87° ENE 17:03:10 10° NNW visible
19 Dec ? 18:36:09 10° WSW 18:38:29 13° W 18:40:49 10° WNW visible
